Theta_e
278 278 278 278 278 277 277 277 277 277 277 277 277 277 276 275 274 270 271 273 273 274 275 275 276 276 276 276 277 276 275 277 279 276 276 275 274 278 282 284 285 286 287 287 287 288 288 288 289 289 290 291 291 292 293 293 293 294 294 295 296 297 297 298 299 299 299 300 300 301 301 301 302 302
277 278 277 277 277 277 277 277 277 277 277 277 277 277 276 276 275 274 272 273 274 273 275 275 275 275 275 276 276 276 275 278 279 276 275 275 275 280 282 282 283 285 285 286 287 288 288 288 288 289 289 290 291 292 292 292 293 293 294 295 295 296 297 298 298 298 298 299 299 300 300 301 301 302
277 277 277 277 277 277 277 277 277 277 277 276 276 276 276 276 275 275 273 270 273 276 274 275 275 275 275 276 275 276 276 277 278 275 275 275 278 280 279 280 282 283 284 285 286 287 287 288 288 289 289 290 290 291 291 291 292 292 293 294 295 296 296 296 296 297 297 298 299 299 300 300 301 302
277 277 276 276 276 276 276 276 276 276 276 276 276 276 276 275 275 275 274 273 274 275 274 274 275 275 274 274 274 274 275 276 278 275 275 275 278 276 275 278 280 282 283 285 286 286 287 288 288 289 289 289 290 290 290 291 291 291 292 293 295 295 294 294 295 295 296 296 297 298 298 298 299 300
277 277 276 276 276 276 276 276 276 276 276 276 276 275 275 275 275 275 274 272 273 274 275 275 274 274 274 273 274 274 274 274 274 277 275 275 274 275 275 275 278 281 283 284 285 286 287 288 288 288 288 288 289 289 289 289 290 290 292 292 292 293 294 294 295 295 295 296 296 296 297 298 298 299
276 276 276 276 275 276 275 275 275 275 275 275 274 274 275 274 274 275 274 273 272 272 273 273 274 272 274 272 274 273 273 273 274 274 274 275 275 275 275 275 276 280 282 284 285 286 287 287 288 288 287 288 288 289 289 289 289 290 290 290 291 291 292 293 293 293 293 295 295 296 296 297 298 298
276 276 275 275 275 275 274 275 275 275 274 274 274 274 274 273 273 274 274 273 271 271 271 272 271 272 272 272 272 273 273 274 274 273 274 274 275 276 276 275 276 280 282 284 285 285 286 286 286 287 287 287 287 288 288 288 288 289 289 290 290 290 290 291 292 292 293 293 294 294 295 296 297 297
276 275 275 275 275 275 274 274 274 274 274 273 273 273 273 273 272 272 273 273 271 271 268 270 271 272 271 272 273 274 274 273 273 273 274 275 275 275 276 275 275 278 282 283 284 284 284 285 285 285 286 286 286 287 287 288 288 288 288 288 289 289 289 289 290 290 291 292 293 293 294 294 295 295
276 275 275 275 275 274 274 273 273 273 272 273 272 272 272 272 272 272 272 271 271 269 269 269 271 272 272 273 273 273 272 273 273 274 274 274 275 275 275 276 277 280 282 282 282 282 283 284 284 284 285 285 286 286 287 287 288 287 288 287 287 288 288 289 289 289 290 290 290 291 292 293 294 294
276 275 275 275 275 274 273 273 273 272 272 272 271 271 271 271 271 270 270 270 270 270 269 269 269 271 271 272 272 273 273 273 272 273 274 274 275 274 274 275 277 277 277 277 278 280 280 281 283 284 284 285 285 286 286 287 287 286 286 286 286 287 287 288 288 289 289 289 289 290 291 292 293 293
276 276 275 275 275 274 274 273 272 272 272 271 271 271 271 271 270 270 270 270 269 269 269 269 270 270 272 272 271 273 274 273 273 272 273 273 275 275 274 274 276 276 277 279 281 280 280 281 281 282 283 284 284 285 285 285 286 285 285 285 286 286 287 287 288 288 289 289 289 289 289 290 291 292
275 275 275 275 274 274 274 273 272 272 271 271 271 271 271 271 270 270 270 270 269 269 269 269 270 272 272 272 273 274 274 274 273 274 273 272 272 273 274 274 274 275 276 275 276 279 279 279 280 281 282 282 283 283 283 283 283 282 283 284 285 286 286 287 288 288 288 288 288 289 289 289 289 291
275 274 274 274 274 274 276 276 275 274 274 271 270 270 271 270 270 269 269 269 269 268 270 270 272 272 272 273 273 274 274 273 272 274 273 272 273 273 273 274 275 276 275 275 275 276 277 276 276 276 276 277 279 279 281 281 281 282 283 284 285 286 286 287 287 288 288 288 288 289 289 289 289 289
273 273 273 273 276 277 277 277 277 277 276 275 272 271 271 270 269 268 268 268 269 270 270 270 271 271 271 273 274 274 274 274 274 273 273 272 273 274 274 275 275 276 275 275 274 275 277 275 275 275 275 277 278 277 277 277 279 281 283 285 286 286 287 287 287 288 288 288 288 289 289 289 289 290
273 272 273 272 275 276 277 276 278 278 278 277 276 276 275 274 271 269 269 270 271 270 270 272 272 272 272 274 274 274 273 273 273 273 273 273 273 272 271 271 274 277 275 274 272 272 274 274 273 273 274 275 275 276 276 280 281 283 284 285 285 286 286 286 287 287 287 288 288 288 289 289 289 289
273 272 271 272 273 274 274 275 276 277 278 278 277 277 277 277 277 276 273 272 272 272 272 272 273 273 273 273 274 273 272 273 273 274 274 274 273 272 272 273 272 276 276 272 270 270 273 273 272 272 273 274 275 275 278 281 281 282 283 284 285 285 285 286 286 287 287 287 288 288 288 288 289 289
273 272 271 271 272 273 276 275 275 275 276 278 278 278 278 278 279 279 279 278 275 275 274 273 273 274 274 273 273 273 273 275 273 274 274 274 274 274 273 273 272 273 274 271 269 268 271 272 271 271 273 273 274 275 277 279 281 283 284 284 285 285 285 286 286 286 287 287 288 288 288 289 288 288
273 272 271 271 271 273 274 275 275 275 276 276 276 276 276 277 278 280 280 280 280 279 277 275 274 275 274 272 274 275 276 275 273 274 274 275 273 272 271 272 271 272 272 269 269 267 269 271 271 270 271 273 273 274 277 280 282 283 283 283 284 284 284 285 285 286 286 287 287 288 288 288 288 288
272 272 272 272 272 273 274 274 275 275 275 276 276 276 276 277 276 276 277 277 276 276 275 274 273 274 274 274 275 276 276 276 276 276 274 273 272 271 270 269 270 270 271 270 269 264 268 271 269 269 271 272 273 274 277 279 280 280 281 282 282 283 283 284 284 285 286 286 287 288 288 288 288 288
273 273 273 273 273 273 274 277 278 277 276 275 273 272 271 272 274 274 276 277 277 275 274 275 275 275 276 277 277 278 278 278 277 275 273 271 268 265 264 264 266 266 270 271 269 266 266 270 268 269 271 272 272 273 273 277 279 279 280 281 282 282 283 283 283 284 284 285 286 287 287 288 288 288
273 273 274 274 273 274 274 278 280 279 278 273 272 271 271 271 272 272 275 277 279 279 279 279 279 280 280 280 280 279 279 278 277 272 268 265 263 262 262 263 264 265 268 269 269 267 265 268 269 269 271 271 271 271 272 272 276 278 279 280 281 281 281 281 282 282 283 284 285 286 286 287 287 287
273 274 276 275 274 274 274 279 281 280 277 272 271 271 270 270 270 272 274 274 275 278 279 279 279 278 278 278 277 276 276 276 275 267 264 263 263 262 261 261 263 264 267 268 270 265 266 269 270 269 269 270 270 271 272 272 273 276 277 278 279 280 280 280 281 281 282 282 283 284 284 285 284 283
274 274 276 277 276 275 276 280 281 281 277 272 272 271 270 270 270 272 273 273 273 274 272 272 272 273 273 272 271 271 273 273 272 269 267 263 261 261 261 261 262 262 263 268 271 266 266 268 269 269 266 265 268 271 271 271 271 271 272 272 273 277 278 279 280 280 281 282 282 282 283 284 284 281
273 274 275 277 278 278 279 280 281 281 279 273 273 272 271 271 271 273 273 274 273 272 271 270 272 271 271 271 270 269 268 267 267 268 268 267 264 262 262 262 263 262 263 267 271 268 268 269 266 269 268 264 262 267 270 269 271 271 272 271 271 275 277 277 277 278 279 280 280 281 282 282 282 279
272 273 274 275 278 279 279 280 281 281 281 277 274 274 273 273 273 275 272 274 275 271 269 268 268 267 266 265 265 266 266 266 267 267 269 268 268 265 263 263 263 263 266 269 273 268 264 266 265 266 266 266 266 266 268 269 270 270 271 271 271 272 272 272 273 272 275 277 279 280 281 281 282 280
272 273 274 274 277 280 280 280 281 282 282 280 275 275 277 277 277 275 272 269 268 267 265 264 263 262 261 261 260 261 262 265 266 267 267 268 268 268 268 266 264 263 264 268 272 268 265 264 266 265 265 265 265 267 266 267 269 270 271 271 271 271 272 271 271 271 272 272 272 275 276 280 281 282
272 273 274 274 278 280 280 280 281 281 282 280 276 278 279 278 279 274 267 267 265 263 262 262 262 261 260 259 260 261 263 265 266 267 267 268 268 268 269 269 269 267 268 268 269 268 267 265 267 266 264 266 265 265 266 265 266 270 270 270 271 271 272 271 270 271 271 271 272 277 278 279 281 282
273 272 273 275 279 280 280 280 281 281 281 279 279 279 279 279 275 267 266 264 263 262 261 260 260 260 261 261 261 262 263 265 266 267 267 267 268 267 268 268 268 268 268 268 268 268 268 266 266 267 267 266 265 264 264 267 268 268 267 269 270 270 271 271 270 271 271 271 271 271 272 272 274 276
273 274 276 277 279 280 280 280 281 280 280 280 280 279 279 274 266 265 264 262 261 261 260 259 259 259 261 262 263 265 266 266 266 265 265 266 265 266 266 266 266 266 267 267 268 268 268 267 266 267 268 267 266 266 266 265 267 267 267 267 266 269 270 270 270 269 269 270 270 270 270 270 271 273
276 277 277 278 279 279 280 279 277 275 276 279 279 277 272 266 264 263 262 260 261 260 259 259 259 260 262 263 264 265 265 263 262 262 261 261 261 262 262 262 263 265 266 267 268 268 268 268 268 269 268 267 267 266 266 265 264 266 267 266 267 268 269 269 269 270 269 269 270 270 270 271 272 274
275 276 276 276 277 278 279 278 276 275 276 273 270 265 264 263 262 261 261 261 260 260 259 260 261 262 263 263 262 261 260 260 261 263 261 261 261 262 262 262 262 263 264 266 268 269 269 269 269 269 267 266 267 267 267 267 265 265 266 267 267 264 266 268 268 269 269 269 269 269 270 270 271 273
274 275 277 277 276 275 274 270 267 265 264 263 264 262 261 261 261 262 265 264 262 262 263 262 262 261 260 258 259 260 259 259 260 261 261 261 261 262 262 261 261 262 263 264 265 267 269 269 269 269 268 267 265 266 267 266 265 265 265 266 266 267 268 267 267 268 269 269 268 268 268 269 269 270
274 274 273 271 269 267 265 264 263 263 262 260 260 260 260 259 260 260 260 259 260 259 258 258 258 258 258 258 258 259 258 258 259 261 260 261 261 261 262 261 261 261 261 262 264 265 266 267 268 269 268 268 268 267 265 264 265 266 265 265 266 266 267 268 268 267 269 268 267 267 267 268 269 270
272 271 269 267 267 266 264 264 263 262 261 260 258 258 262 259 259 259 260 259 259 258 258 257 258 257 258 258 258 258 258 258 258 260 263 261 262 261 260 260 261 262 262 262 263 264 265 265 266 266 267 267 268 267 267 265 264 265 265 266 266 265 266 267 267 268 268 267 267 266 266 267 269 270
270 268 267 267 266 265 265 264 263 262 261 260 259 258 259 259 260 260 259 259 259 258 258 258 257 257 258 258 258 257 258 258 259 258 260 260 260 260 260 260 261 261 262 262 263 264 264 264 264 263 264 264 264 266 270 268 265 265 265 265 266 266 266 267 267 268 268 268 268 266 266 267 268 270
268 268 267 266 265 264 264 264 262 261 260 260 259 259 257 257 258 258 258 259 258 258 258 257 257 257 257 258 258 258 258 259 259 259 259 259 259 260 261 261 262 262 263 263 263 264 264 263 263 262 261 261 261 261 262 270 271 267 265 265 266 266 266 267 267 268 267 267 267 267 265 265 267 269
268 267 267 265 265 264 264 263 261 260 260 259 259 258 258 257 258 258 259 261 259 258 258 258 257 258 258 258 258 258 259 259 258 259 259 259 259 260 260 261 262 263 263 263 264 264 263 262 263 262 261 260 260 259 261 265 268 271 268 265 265 266 266 267 266 266 267 267 267 267 266 266 266 268
267 266 266 265 264 264 264 262 260 259 259 259 258 258 258 258 258 258 259 258 257 257 258 258 257 257 257 257 257 257 258 259 259 259 259 259 259 260 261 261 262 263 263 264 264 263 263 263 262 262 261 260 259 259 260 263 264 266 271 268 266 266 267 266 265 264 265 267 267 267 268 267 267 268
267 266 265 264 263 263 262 260 260 259 258 258 257 257 257 257 257 257 257 256 257 256 256 256 256 256 256 256 257 258 258 258 258 258 258 259 260 260 261 262 263 264 264 263 263 263 262 261 261 261 261 261 260 261 262 262 262 265 268 272 269 267 266 266 265 266 266 265 267 268 268 269 270 274
266 266 265 264 262 262 261 259 259 258 257 257 257 257 256 255 256 255 255 255 255 255 256 256 257 258 258 258 257 256 257 257 258 258 259 259 261 262 262 263 263 264 263 262 261 261 261 261 262 262 262 263 264 265 265 265 265 266 266 268 273 270 267 267 266 266 265 267 268 266 266 267 266 268
265 264 264 263 261 261 259 258 258 257 256 256 255 257 256 255 255 254 254 254 255 255 256 257 257 256 256 255 255 256 256 258 259 259 260 260 261 263 263 264 263 263 262 261 261 261 261 262 264 269 266 265 266 266 264 262 261 262 264 265 270 272 273 273 269 267 266 268 267 266 265 265 265 266
264 263 263 261 260 260 259 257 257 256 255 255 254 255 255 255 254 257 258 260 258 257 255 255 254 254 254 254 254 256 257 257 258 259 260 261 261 262 263 264 263 262 261 260 260 261 263 265 265 264 264 264 263 262 260 261 261 262 263 265 266 270 272 273 273 273 270 268 267 265 265 266 267 265
262 262 260 259 259 258 257 256 255 255 254 254 253 254 253 253 253 255 254 254 253 253 253 253 253 253 254 254 254 255 256 257 258 259 261 262 262 262 262 263 262 262 261 261 262 262 263 263 263 263 263 263 263 263 261 261 262 262 263 263 264 266 267 271 272 273 273 274 274 271 269 267 265 263
261 260 258 258 256 256 255 254 254 254 253 253 253 253 252 252 252 252 252 252 252 252 252 252 252 253 253 254 255 255 257 258 259 260 261 262 263 263 262 262 262 261 261 261 261 261 262 262 262 262 262 262 263 262 262 262 262 263 263 263 264 264 264 266 267 270 271 273 273 274 274 275 274 273
260 258 256 256 255 254 253 253 253 252 252 252 252 251 252 252 252 252 252 252 251 252 252 252 252 252 253 254 254 255 257 261 262 262 262 262 262 263 262 262 261 261 261 261 260 260 261 261 262 262 262 262 263 263 263 263 262 263 263 263 263 264 264 265 264 264 265 266 270 273 274 275 275 275
Wind_Speed
6 6 8 7 7 6 5 4 5 5 5 5 5 6 7 7 4 1 2 3 5 3 3 4 1 3 3 3 1 2 1 3 4 2 3 3 2 9 14 15 16 17 17 17 17 18 18 18 18 17 17 17 18 19 19 20 20 21 22 24 24 24 24 24 24 24 24 24 25 25 25 25 26 26
6 6 6 5 7 5 6 6 6 6 6 6 6 6 3 6 8 6 5 5 4 4 2 1 3 3 2 2 3 4 3 4 4 3 4 4 4 12 15 16 16 17 17 18 19 19 18 18 18 19 19 19 19 20 20 20 22 23 23 24 25 25 25 25 25 25 25 25 26 26 26 26 26 26
8 8 9 6 6 6 7 6 6 5 6 6 6 5 4 4 4 7 5 1 4 4 3 2 2 3 1 3 4 2 2 4 6 3 4 4 9 14 11 14 16 17 17 18 18 18 18 18 19 19 19 20 20 21 21 22 23 24 25 25 25 25 25 25 26 26 26 26 27 27 27 27 28 28
8 9 9 8 7 7 6 7 7 7 6 6 6 6 6 5 4 6 6 6 8 2 3 1 0 3 2 5 7 7 7 7 12 7 6 6 10 7 5 10 14 16 17 17 18 18 18 18 19 20 20 21 21 22 22 23 24 25 26 26 26 26 26 27 26 27 27 27 27 28 28 28 28 29
8 9 8 8 7 7 8 7 7 6 7 6 5 5 6 6 6 7 7 7 8 5 1 1 2 3 4 4 4 8 7 8 9 9 8 8 7 7 6 6 11 15 17 17 17 18 18 18 19 20 20 21 21 22 23 23 24 24 24 25 26 27 27 27 27 27 27 27 28 28 29 29 29 29
8 8 9 8 8 8 8 7 8 7 7 7 7 7 7 7 7 6 7 7 6 9 1 1 2 3 2 3 3 5 6 7 8 9 8 6 7 7 7 7 7 15 17 18 18 18 18 19 20 20 20 21 21 22 23 23 23 23 24 25 26 26 27 28 27 27 28 29 29 30 30 30 30 30
10 10 10 9 8 7 8 8 7 7 7 7 8 8 6 7 7 7 7 7 7 8 6 1 1 1 2 4 5 5 7 7 8 9 8 7 6 6 7 7 6 12 17 18 18 19 19 20 21 21 21 21 22 22 23 23 23 24 25 26 26 27 27 28 28 28 28 29 29 29 30 30 31 31
13 13 11 10 11 10 10 9 8 7 7 8 7 7 6 7 7 6 6 6 6 4 5 1 3 2 1 4 5 7 8 8 8 8 8 7 7 7 6 6 6 9 15 16 18 19 19 20 20 20 20 21 21 22 23 24 24 25 26 26 27 27 28 29 29 29 30 30 30 31 30 31 31 31
14 14 14 12 12 11 11 9 9 9 10 8 7 8 7 7 6 5 6 6 5 4 5 3 3 3 4 5 7 8 7 7 7 6 7 6 7 7 6 6 7 12 16 16 17 17 18 19 19 19 19 19 21 22 23 24 24 26 27 27 27 28 29 30 30 31 32 33 32 33 32 32 32 32
14 14 14 13 13 13 14 13 11 10 11 9 8 8 7 6 6 7 6 6 5 4 3 4 4 3 5 5 6 7 8 7 6 5 5 4 5 4 4 5 5 4 5 5 6 9 11 13 18 18 19 21 22 23 23 24 26 26 27 28 29 29 30 30 32 32 33 33 34 33 33 32 32 32
13 13 13 13 14 15 14 13 13 12 11 10 10 9 8 7 7 7 6 6 6 5 4 4 5 5 6 6 6 6 6 6 5 6 5 5 4 4 5 7 5 5 6 8 12 11 11 14 12 16 20 21 22 22 23 24 26 26 27 28 29 30 30 31 32 33 34 35 35 35 34 33 33 33
13 13 13 13 14 14 13 12 11 12 12 9 9 8 8 8 8 7 6 6 5 4 3 3 5 6 6 5 6 6 4 3 2 2 5 8 7 7 5 6 9 6 6 6 4 6 8 8 12 16 17 18 20 21 21 24 26 27 27 27 29 29 30 31 32 33 33 34 35 35 35 34 33 33
12 11 11 11 11 11 12 14 12 12 11 10 11 9 9 9 8 7 6 5 5 3 4 5 5 6 5 5 3 3 3 4 5 5 5 7 7 7 7 5 5 6 5 5 4 4 4 7 7 8 8 7 12 15 21 19 23 24 25 26 27 28 30 31 32 32 33 34 35 36 35 35 34 33
12 12 11 10 16 17 17 17 17 18 17 15 10 10 11 10 9 8 8 7 6 5 5 6 5 5 5 4 4 3 3 3 4 5 6 8 8 8 8 5 3 3 5 6 7 6 7 10 10 7 8 5 7 8 9 9 13 19 24 26 28 29 30 32 32 32 33 34 35 35 36 36 34 34
14 12 11 10 14 16 17 15 20 19 20 19 17 16 15 13 12 11 9 8 7 7 6 6 6 6 6 5 3 4 3 2 3 5 6 9 9 9 11 10 5 2 6 9 10 13 7 8 9 5 6 8 7 7 8 17 22 25 27 28 29 29 29 30 31 33 33 33 34 35 34 35 35 36
12 13 10 9 10 11 13 13 14 17 20 19 18 19 18 19 18 14 11 10 9 9 8 7 7 6 6 4 3 2 2 4 6 7 8 8 9 10 9 10 11 6 9 13 12 12 7 8 8 6 5 6 7 9 17 23 25 26 27 28 28 28 29 30 31 32 33 34 34 34 36 35 35 35
14 12 12 9 8 10 19 14 12 12 13 18 20 19 20 20 19 17 17 15 10 8 8 8 8 7 5 4 3 2 4 6 7 8 8 9 9 8 9 9 12 10 8 12 12 12 8 7 9 8 6 8 9 10 14 21 25 27 27 27 27 29 29 30 31 32 33 34 34 34 35 35 36 36
12 9 10 14 10 10 13 12 13 13 12 13 13 14 13 12 15 18 18 18 17 13 7 7 8 7 3 4 4 6 6 7 6 5 7 5 5 6 7 10 11 11 7 9 11 14 2 1 10 13 8 8 9 9 15 23 23 26 28 29 30 31 32 31 31 31 33 35 35 35 36 37 36 35
12 8 8 10 10 14 14 12 16 14 14 13 12 12 11 10 9 7 8 7 5 5 3 4 4 4 5 7 7 7 6 6 6 4 4 4 6 6 8 10 9 10 4 5 6 10 9 5 10 14 10 9 10 6 13 23 26 29 31 33 33 31 29 29 30 31 33 34 35 35 36 36 37 36
8 7 9 9 12 14 13 17 25 18 13 12 12 12 8 7 6 5 7 9 9 7 6 6 7 7 7 9 7 7 5 4 1 3 4 5 5 6 8 10 6 7 4 3 6 10 11 7 9 16 12 8 12 10 10 19 27 27 28 30 30 29 28 29 30 32 33 34 35 35 35 35 37 36
11 12 10 9 11 12 10 19 24 23 19 11 13 11 11 8 7 6 7 13 16 16 16 15 14 14 13 10 10 10 10 6 4 4 5 6 2 4 8 10 6 8 5 5 5 8 12 8 9 12 15 10 13 13 12 9 17 24 26 28 30 30 30 30 30 32 34 35 36 36 37 37 35 40
9 11 20 16 9 8 12 22 25 26 20 13 13 12 11 10 9 8 7 6 8 16 16 14 11 9 9 11 8 5 6 8 7 2 5 4 1 5 4 8 9 9 7 8 6 3 6 9 8 12 14 17 10 9 9 10 10 19 22 29 31 31 30 31 32 31 32 33 35 36 37 36 37 27
9 11 15 20 14 12 15 24 24 26 20 12 13 13 11 11 11 8 9 8 8 6 3 1 1 3 2 3 2 3 7 9 8 4 5 2 3 6 5 6 7 11 3 2 2 6 7 9 10 9 12 16 16 5 7 10 9 11 14 17 16 23 27 32 32 32 32 33 34 35 36 36 34 21
10 10 11 16 22 21 23 23 25 25 24 13 11 10 10 11 9 7 9 8 6 5 4 3 4 5 4 3 0 1 2 3 4 6 5 4 4 6 5 5 5 8 6 3 8 7 7 8 11 7 7 11 17 17 12 13 14 13 13 16 14 18 25 28 28 32 32 31 34 35 36 36 35 20
12 12 11 10 20 23 24 24 25 25 24 18 11 11 9 9 8 9 8 10 12 5 5 4 3 2 1 0 0 1 2 3 4 4 6 5 5 5 5 6 7 9 10 9 11 6 7 7 12 9 11 8 15 17 19 18 16 15 15 14 16 15 12 13 13 16 20 30 33 35 35 35 36 28
10 8 8 8 19 26 24 24 25 27 25 24 10 12 15 16 18 11 7 5 6 5 4 4 2 2 1 1 1 1 2 4 5 5 5 6 6 6 7 7 7 9 11 5 11 8 9 10 9 9 11 11 16 16 20 20 20 16 16 13 11 13 14 14 14 16 14 13 15 19 24 33 33 34
9 7 8 10 21 24 24 24 24 24 25 21 12 20 20 19 20 11 7 6 6 5 4 3 2 2 2 2 2 1 2 3 4 5 5 6 6 7 7 8 8 11 13 12 9 8 8 11 11 11 13 11 15 16 18 17 18 18 17 18 15 11 11 12 19 16 17 17 17 28 31 33 35 36
6 6 6 12 21 24 24 25 24 23 22 14 19 22 21 21 14 8 7 6 5 5 4 4 3 4 2 2 2 2 2 3 4 5 6 6 7 8 8 9 10 10 13 13 11 9 8 11 12 12 13 14 14 16 17 21 19 16 23 22 19 13 14 13 15 18 15 18 17 17 16 18 19 19
7 8 18 20 22 22 22 23 23 20 21 22 19 21 21 13 7 7 6 6 5 5 5 5 3 2 2 2 2 3 3 4 5 4 4 5 6 7 9 10 10 10 10 9 10 11 10 10 11 12 12 13 12 16 17 20 20 24 17 21 21 13 14 15 16 21 18 17 19 19 18 17 19 18
19 19 20 22 21 20 19 15 11 8 9 18 18 16 13 7 6 6 6 5 6 6 5 5 4 3 1 1 2 3 3 3 4 4 5 5 6 5 7 9 9 8 9 10 11 10 10 11 11 13 14 13 12 15 14 16 20 19 22 18 19 22 16 12 14 18 15 16 20 19 19 18 19 19
15 17 17 13 17 12 18 14 9 9 8 9 8 6 5 5 5 5 5 7 7 5 4 4 3 2 1 0 1 1 1 3 4 4 5 6 7 6 7 8 11 10 7 7 10 11 11 11 12 11 13 14 16 15 15 12 17 20 21 19 18 17 16 15 16 15 21 18 23 21 22 19 20 22
13 14 16 18 13 11 9 7 6 5 5 5 6 5 5 5 4 5 8 7 4 3 3 3 2 0 0 1 1 2 2 4 5 4 5 6 7 6 6 9 11 10 11 8 7 9 11 11 12 12 13 14 16 18 16 14 16 17 20 22 19 18 16 16 17 18 18 17 24 18 22 20 20 19
12 12 12 10 8 8 8 8 7 6 6 4 4 6 5 4 4 4 6 7 6 4 3 3 2 1 0 1 1 2 3 5 5 4 5 6 7 7 6 9 11 10 12 13 10 8 8 9 10 13 14 13 17 18 17 18 19 18 17 18 14 18 13 11 16 17 16 18 19 21 23 20 18 19
14 13 13 12 13 12 11 11 10 9 7 7 5 4 6 4 3 4 4 3 4 4 4 3 3 2 1 2 2 2 4 5 4 6 7 6 5 7 8 9 10 9 10 12 12 12 9 9 8 11 14 16 17 17 17 15 17 20 19 16 13 18 16 11 17 18 14 16 21 21 22 21 17 16
14 13 13 12 11 11 11 11 11 10 10 8 6 5 6 5 6 5 4 4 4 4 4 3 3 2 2 3 2 3 4 4 5 4 4 5 6 7 8 9 11 10 10 10 11 10 10 11 11 12 12 12 13 16 19 18 15 18 19 17 12 16 16 14 15 13 17 17 16 20 23 23 23 17
12 13 14 13 12 12 12 11 9 11 13 13 11 8 7 5 5 4 5 5 5 4 4 4 3 3 3 3 3 4 4 6 5 5 5 5 6 8 8 9 10 11 10 10 10 9 8 10 10 12 14 16 16 19 20 8 11 13 14 19 15 12 14 16 15 17 16 16 18 20 22 25 24 20
13 11 12 12 12 12 12 11 11 14 12 12 11 6 9 7 5 4 5 6 4 3 4 3 2 3 3 3 4 4 5 5 6 6 6 6 6 7 9 10 10 10 12 12 10 10 7 9 9 10 12 14 17 20 23 17 12 16 16 17 19 16 13 15 15 17 16 17 19 18 19 24 26 23
13 12 12 11 12 12 11 10 11 12 12 12 8 6 4 5 5 5 5 4 3 3 2 2 2 1 2 3 3 4 4 5 6 7 7 6 7 8 8 10 11 10 11 12 8 8 8 10 10 10 10 14 16 18 23 21 16 9 13 19 18 23 17 16 18 21 18 16 18 18 21 22 24 23
13 14 14 13 12 11 11 11 13 13 13 11 11 10 7 5 4 4 3 3 3 4 3 3 3 3 3 3 4 4 4 5 6 7 8 7 7 8 10 10 11 12 11 12 12 10 8 9 9 9 9 13 15 16 17 20 23 21 15 25 26 24 22 16 19 21 19 16 17 18 19 22 25 39
12 11 11 11 11 10 9 11 11 13 14 13 11 8 8 6 5 5 4 4 3 3 4 4 4 4 3 2 2 3 4 7 8 7 8 8 8 9 10 10 11 10 11 12 12 13 9 10 10 9 11 13 15 16 17 20 21 20 18 20 28 26 22 20 19 19 19 17 15 17 19 14 18 15
11 11 9 9 9 9 11 12 11 10 11 11 10 7 6 5 5 5 5 5 4 4 3 4 3 2 2 3 3 3 5 6 7 7 8 9 10 10 12 14 11 9 10 14 14 13 12 10 14 25 23 15 15 16 16 17 18 17 13 13 16 28 35 31 27 23 23 19 19 18 20 19 16 15
10 10 9 9 10 9 11 13 9 12 12 9 10 9 7 6 7 7 6 5 4 3 2 2 2 2 3 3 4 4 5 6 7 8 9 9 10 11 12 10 10 10 11 13 15 14 14 13 15 14 12 12 11 12 17 17 18 21 19 15 13 18 29 33 35 34 28 24 19 19 18 17 15 19
9 9 9 8 8 9 10 13 13 14 12 9 9 8 8 6 3 3 4 4 3 2 2 2 2 3 4 4 4 4 5 7 7 8 9 10 10 11 12 10 9 10 11 13 15 15 15 14 12 11 12 10 10 11 16 18 20 20 19 19 18 14 15 23 31 35 36 38 36 31 23 19 14 19
8 10 9 9 9 11 10 11 13 11 12 10 7 8 5 5 5 4 5 4 4 4 4 3 3 3 4 4 4 4 6 7 8 9 9 9 10 11 11 11 11 12 11 11 13 13 13 12 10 11 12 13 12 12 16 18 19 17 17 19 19 18 19 17 17 21 26 31 36 37 41 42 39 39
9 12 11 11 11 11 13 12 12 11 11 10 8 8 5 4 4 4 4 4 4 4 3 3 4 4 4 4 4 6 7 9 9 8 9 10 11 10 9 9 11 13 13 11 12 16 14 13 13 11 11 12 11 13 17 16 19 19 18 20 22 19 17 17 18 20 18 17 23 32 35 37 38 40
Wind_Direction
171 173 177 177 169 175 165 162 162 160 156 165 169 181 168 158 138 168 316 254 186 209 196 145 171 142 135 134 136 90 5 308 323 296 310 309 302 302 309 314 317 315 316 317 316 315 316 316 316 317 319 320 320 321 321 322 321 321 320 318 318 316 313 311 309 308 307 306 305 305 304 303 301 299
172 171 173 170 172 167 167 173 168 167 166 165 178 187 183 161 158 165 169 254 194 184 198 149 140 162 158 170 186 174 189 282 331 322 320 314 294 301 312 312 310 311 315 315 315 314 315 315 317 319 322 323 323 323 323 323 322 321 319 318 316 315 313 312 310 309 308 306 305 305 304 303 301 300
171 176 180 175 170 166 170 164 170 168 165 172 171 179 165 174 141 144 131 147 280 150 167 72 88 91 321 328 313 321 324 320 325 307 291 292 293 303 302 299 303 308 311 312 313 314 314 315 318 321 322 323 325 325 324 323 322 321 319 317 317 315 313 312 310 308 307 306 305 304 303 302 300 299
181 178 182 180 173 169 163 169 173 172 170 165 170 171 168 166 149 139 152 175 246 127 139 139 104 63 27 342 334 333 338 331 326 308 301 291 298 291 273 284 293 301 307 310 314 314 314 316 320 322 323 324 324 324 323 323 322 321 320 319 318 316 314 313 312 309 307 306 305 304 302 300 298 297
180 184 182 179 177 165 170 174 170 171 168 164 167 165 166 166 165 159 160 185 243 286 112 34 349 30 29 347 346 319 320 312 304 304 304 305 298 289 281 279 289 300 306 309 311 312 315 318 321 322 322 321 321 322 321 321 320 318 317 316 315 314 313 312 311 309 306 304 303 302 300 297 295 293
183 179 180 182 173 175 175 170 176 171 168 171 166 179 175 175 174 173 160 194 195 255 321 0 47 31 19 300 287 268 280 278 287 291 293 289 283 285 292 296 296 300 306 309 311 315 317 319 320 320 320 320 320 319 319 318 316 314 314 313 312 310 309 308 306 305 304 302 301 299 297 296 294 292
177 179 184 182 173 171 174 180 178 168 174 173 177 180 178 176 176 176 175 165 203 228 266 143 122 163 212 233 254 253 249 252 261 274 278 279 279 276 277 281 282 290 298 305 310 314 317 318 318 318 319 319 319 318 317 315 313 312 311 310 308 307 306 305 304 302 301 301 300 299 296 293 291 289
179 183 179 184 176 175 179 179 174 178 173 179 181 178 184 177 175 175 170 188 181 191 214 229 143 185 218 244 248 249 248 245 244 241 256 261 270 273 274 272 271 274 285 298 305 310 311 311 311 313 314 314 314 314 312 311 310 309 308 306 305 304 303 302 301 299 298 297 296 296 294 293 289 286
181 182 187 178 174 177 178 178 180 177 181 182 179 184 183 178 169 163 174 176 168 168 208 240 238 247 246 241 242 244 249 247 234 237 245 257 260 264 261 265 266 273 285 295 301 303 304 307 309 310 310 309 308 308 307 304 304 303 303 302 301 300 300 298 297 297 296 296 294 293 290 289 288 285
183 184 183 179 177 180 183 185 180 176 180 177 184 184 182 171 165 167 167 164 169 167 192 215 263 238 245 245 227 232 236 250 268 268 262 256 252 255 267 246 253 256 275 287 282 290 297 299 305 307 308 306 304 304 304 302 301 299 297 298 296 294 293 292 294 293 293 292 291 290 287 286 285 284
185 185 183 179 180 185 187 181 179 177 176 180 185 182 175 170 170 173 170 166 164 176 187 221 234 254 248 234 241 236 226 238 255 277 298 297 284 280 293 296 277 273 267 261 279 290 300 302 302 301 299 298 298 299 297 294 294 295 295 293 292 291 291 291 290 290 290 290 289 287 285 283 283 282
186 185 184 183 186 187 186 181 176 173 177 171 177 176 171 174 173 172 165 163 167 172 184 215 242 248 246 237 228 231 225 254 273 272 313 305 309 302 291 289 298 287 271 281 270 284 288 280 289 291 290 292 294 292 291 289 289 290 290 290 289 289 291 290 290 290 289 289 288 287 285 282 281 280
183 183 185 185 184 184 181 180 176 178 172 167 172 176 172 176 172 167 165 161 157 162 183 230 248 255 257 249 242 288 318 331 313 307 301 296 291 294 295 274 250 264 280 275 271 280 280 297 291 288 284 278 281 281 282 285 288 287 287 288 289 291 289 290 288 288 286 287 287 286 284 281 279 278
184 184 181 180 179 179 179 178 178 180 181 183 176 169 171 173 169 170 164 163 160 172 192 220 236 246 248 261 280 295 302 313 302 300 302 301 306 303 294 283 253 276 279 308 303 296 312 302 293 281 284 276 277 282 282 275 282 284 289 290 291 290 289 290 289 286 286 288 286 284 283 280 276 274
182 180 178 172 177 177 179 179 181 182 183 183 182 180 179 181 174 167 168 167 170 178 197 217 230 239 252 262 273 289 303 293 288 296 302 308 312 317 323 319 317 211 349 327 316 307 305 285 289 294 287 289 281 275 275 288 294 294 293 293 293 292 290 291 289 288 287 285 285 284 280 279 276 273
180 177 163 169 176 178 178 174 180 183 185 182 180 182 184 189 189 184 169 167 174 186 195 211 216 233 242 253 261 275 295 292 306 303 306 304 308 308 308 306 307 319 351 318 310 297 309 293 288 287 272 278 281 286 294 298 297 293 293 292 292 291 289 289 287 287 286 284 284 283 281 277 275 275
180 175 170 160 171 177 179 175 177 175 181 183 181 185 190 195 197 193 188 181 176 185 197 204 225 228 235 241 245 202 271 291 289 296 299 301 297 303 306 305 305 311 340 313 306 300 316 296 295 294 286 278 284 287 290 293 293 294 293 292 291 293 290 288 287 285 284 283 282 281 279 279 277 272
180 161 164 172 171 170 177 177 176 174 176 177 181 188 194 199 204 203 203 207 210 210 200 212 225 225 183 226 246 246 265 275 274 278 287 321 323 314 299 303 297 302 329 300 306 298 322 59 314 299 292 288 285 284 290 293 297 297 298 297 295 295 293 291 289 286 284 284 282 280 280 279 275 273
182 163 160 166 161 170 178 179 176 174 176 175 181 188 194 196 195 192 196 196 193 202 188 200 219 227 225 227 238 248 249 246 263 305 347 341 307 304 307 295 288 292 287 283 299 286 310 354 311 295 299 298 285 272 292 299 299 296 296 295 293 292 290 290 292 291 288 285 282 281 279 277 277 274
173 162 165 161 169 175 177 178 178 175 168 170 175 181 183 185 185 187 192 194 203 196 202 212 217 225 229 230 228 233 251 285 348 4 340 337 332 333 307 291 293 279 299 274 288 291 298 329 302 297 295 292 292 296 289 294 295 294 292 294 295 293 293 292 291 290 289 286 283 281 280 279 277 274
175 179 171 169 174 176 172 178 179 176 171 167 177 180 186 186 190 195 195 208 210 215 218 217 220 227 235 256 275 285 289 290 314 9 337 293 341 321 303 293 294 288 322 288 276 283 295 310 304 301 299 302 296 296 292 285 292 294 292 292 295 295 294 291 288 288 288 287 286 285 284 281 280 276
184 181 182 180 161 159 169 178 179 180 178 174 179 181 182 184 194 197 184 190 217 222 223 222 225 236 257 267 280 303 295 296 311 349 273 270 0 279 257 283 299 302 295 287 264 259 268 307 314 307 302 300 276 274 284 289 285 292 294 291 291 292 292 290 286 285 283 283 283 284 282 283 283 280
183 184 186 184 178 169 174 180 182 181 178 175 181 181 179 187 196 189 180 193 202 185 123 110 178 256 232 85 88 318 321 304 304 284 257 252 214 253 258 268 304 309 310 173 59 317 302 312 305 319 317 307 298 247 268 290 290 285 285 287 286 284 286 290 287 285 283 281 282 282 280 280 279 273
188 185 184 184 183 179 180 185 184 184 181 174 178 178 183 188 189 172 191 192 166 177 169 172 153 163 173 163 175 304 284 269 254 255 245 227 204 219 246 253 249 256 272 305 324 298 304 306 298 310 290 302 301 309 305 295 293 290 284 287 285 287 289 288 288 283 281 280 280 280 279 278 279 279
184 184 183 173 181 181 182 187 191 190 185 177 178 183 182 183 174 171 173 183 187 149 136 138 154 154 85 348 310 281 239 258 253 250 259 248 249 245 247 264 260 258 265 278 303 310 297 309 292 299 284 257 274 292 294 299 287 291 288 288 290 288 288 279 278 278 275 279 278 279 279 278 276 271
188 178 159 152 182 184 185 189 192 191 190 184 170 186 185 188 193 184 162 135 117 129 130 145 157 176 185 217 226 225 225 241 249 252 250 255 254 253 248 252 266 278 279 282 298 299 299 289 281 287 281 286 284 283 292 295 292 291 291 283 273 284 288 286 283 281 280 277 276 276 278 277 274 271
180 155 160 163 181 184 186 189 192 192 192 188 177 188 196 196 197 162 134 133 130 125 141 136 197 232 218 227 238 234 235 253 259 259 262 260 262 262 260 263 267 275 283 291 282 273 269 274 280 276 280 277 281 287 283 286 295 301 297 290 286 280 278 286 286 285 287 284 280 281 282 279 276 273
157 139 142 169 179 185 186 188 190 191 191 186 179 188 194 195 164 120 135 120 131 126 136 178 213 223 208 179 233 233 242 249 270 280 282 279 276 274 275 271 270 268 276 280 280 269 258 263 270 267 269 276 277 281 289 289 285 287 294 295 294 288 293 281 281 278 280 278 281 280 278 278 276 276
152 154 172 178 183 183 182 185 188 190 192 192 193 194 192 148 110 132 126 142 129 163 187 200 204 211 198 207 228 256 284 290 293 283 280 283 279 279 276 271 266 265 267 268 268 266 261 256 264 268 270 265 266 273 279 282 293 293 290 293 294 297 297 289 287 281 282 277 274 272 269 267 270 268
168 171 178 183 187 188 188 186 182 170 185 192 187 166 128 119 132 126 137 134 158 189 181 171 196 204 195 211 243 297 306 297 284 284 280 281 279 277 280 284 272 250 251 260 263 263 259 260 262 269 271 270 264 273 274 286 288 287 288 282 285 290 282 274 280 286 280 282 278 276 274 270 269 270
169 173 175 180 187 189 186 173 150 140 160 156 122 84 101 105 119 137 153 170 174 169 165 173 182 189 191 287 323 315 299 282 273 274 274 273 276 282 278 281 284 288 261 241 256 261 265 266 267 269 272 278 279 271 275 270 274 283 284 283 285 281 290 288 278 276 280 279 280 275 275 270 266 263
159 160 168 175 178 170 161 130 86 79 76 100 115 104 95 109 114 161 163 155 149 160 159 152 142 84 73 351 287 288 274 269 274 271 270 268 278 276 286 289 286 291 292 277 254 253 256 259 266 269 269 276 281 286 287 276 273 273 276 280 285 279 276 279 278 282 277 278 279 274 273 269 267 264
149 150 156 151 149 144 139 134 139 144 130 97 120 115 107 114 152 144 171 170 165 151 131 142 142 166 103 257 248 254 269 264 266 270 269 273 270 281 271 273 284 294 297 298 291 267 254 254 252 262 271 272 271 274 280 286 281 276 272 276 280 281 280 271 274 277 285 280 273 278 276 268 262 264
155 165 159 159 161 161 159 161 163 165 160 151 128 138 157 148 156 174 175 168 148 154 150 148 143 174 176 252 241 247 254 271 264 266 275 279 280 284 285 282 280 277 277 284 290 292 286 270 267 263 265 261 262 256 261 263 271 278 275 277 276 278 277 273 277 275 270 272 278 280 275 275 265 260
160 162 165 167 167 169 168 170 169 163 163 157 136 157 156 152 177 178 174 171 156 150 146 148 158 172 192 235 245 254 264 268 278 272 260 259 272 270 278 282 285 285 283 283 284 286 289 295 298 295 284 275 271 262 232 235 251 264 280 275 263 272 279 278 279 273 275 276 275 275 280 277 276 269
172 172 168 169 170 167 172 176 166 167 157 148 155 157 161 181 187 178 169 163 147 146 141 155 171 183 209 230 240 252 263 271 272 272 272 267 271 279 274 271 276 281 281 277 280 282 287 291 300 298 300 303 302 300 301 226 234 272 276 285 282 271 277 281 274 274 272 273 269 271 274 278 279 272
167 173 172 169 171 172 177 171 169 162 161 153 154 161 163 165 176 165 160 147 133 140 151 154 184 193 205 214 244 256 271 276 278 273 274 272 269 272 281 282 279 279 281 279 278 285 286 287 288 290 293 294 296 295 290 297 263 265 277 280 289 281 280 283 281 274 268 271 273 268 268 275 275 276
170 166 169 172 175 179 177 171 159 154 149 147 146 148 155 144 145 144 143 139 142 140 178 165 179 219 233 234 240 259 262 267 272 277 274 276 276 276 274 284 288 283 280 282 279 282 289 287 285 283 283 286 293 294 298 302 297 253 259 282 282 288 286 284 281 277 277 269 264 268 269 263 268 275
168 171 176 177 177 172 167 168 167 161 145 141 147 151 150 142 139 141 137 141 153 158 158 176 195 205 225 226 229 240 268 279 282 278 278 273 268 276 284 285 285 285 287 291 296 289 281 274 271 273 274 282 281 282 287 292 291 293 278 276 283 284 284 275 274 277 275 272 270 263 252 259 265 270
170 170 173 169 170 169 164 150 153 151 148 147 141 143 141 148 141 139 151 154 149 171 177 187 209 215 211 215 240 267 268 261 264 271 272 278 276 276 275 279 283 288 294 291 293 295 285 280 277 272 274 276 276 279 277 275 277 278 279 273 267 272 277 286 279 277 278 277 273 272 271 269 265 267
162 169 168 162 159 161 157 161 158 147 150 134 134 149 143 141 145 148 143 164 164 173 184 188 181 187 231 253 248 240 258 269 268 274 278 278 279 280 285 292 285 284 289 292 293 290 286 284 284 290 289 280 278 280 280 283 283 286 280 274 262 275 280 279 279 279 279 281 278 272 271 271 270 271
159 160 158 155 160 159 154 144 145 137 121 145 138 126 130 133 147 170 171 173 149 148 115 158 189 226 244 238 240 245 254 268 275 273 276 279 283 284 281 278 280 295 295 293 292 290 289 290 289 290 282 281 280 287 285 286 288 293 293 289 280 271 281 284 280 275 276 278 279 274 272 269 262 262
151 147 151 143 143 137 139 136 136 137 136 133 135 128 121 122 149 139 118 146 164 170 189 200 204 214 241 244 243 244 254 265 268 272 275 277 281 286 290 285 280 284 285 284 287 286 289 292 293 291 289 281 275 276 280 286 288 290 293 297 294 293 282 280 281 280 277 274 271 267 264 263 266 261
144 139 131 135 135 128 135 139 126 133 124 127 125 128 125 133 151 167 167 163 177 191 193 199 214 220 239 250 250 256 254 259 264 271 275 280 284 282 279 286 290 291 285 283 286 288 292 290 287 290 292 291 291 291 286 291 290 291 290 289 296 300 297 297 287 280 277 275 271 267 264 259 256 256
143 137 135 128 134 131 120 119 131 129 125 121 126 131 144 138 151 165 175 180 184 190 193 211 222 231 235 245 249 260 263 269 276 276 283 282 280 277 277 285 292 294 290 290 294 298 299 297 295 290 278 279 288 284 287 284 288 294 295 296 298 299 300 300 301 300 292 284 269 267 265 263 261 259